sat.trackr.live / text

‹ back to catalog

LUCAS (JDRS-1)

NORAD 47202 · 2020-089A

PAYLOAD ACTIVE UNKNOWN

§ Identity

Operator
Country
JPN
Launch date
2020-11-29
Launch site
TANSC
Launch vehicle
Mass (kg)
RCS (m²)

Purposes: comms

External: N2YO · Heavens-Above · Gunter

§ Orbital elements

Epoch: 2026-09-10T02:53:38.734944Z

Period
1,436.11 min
Inclination
0.0584°
Eccentricity
0.0001801
Mean motion
1.00270737 rev/d
Perigee alt
35,779.3 km
Apogee alt
35,794.5 km
Semi-major
42,165.0 km
B*
0.0000e+0
RAAN
282.0563°
Arg perigee
267.6345°
Mean anomaly
293.6741°
Rev number
2,127

§ Raw data

LUCAS (JDRS-1)1 47202U 20089A   26253.12058721 -.00000256  00000+0  00000+0 0  99902 47202   0.0584 282.0563 0001801 267.6345 293.6741  1.00270737 21274

JSON: /api/v1/satellites/47202 · /tle

For live sub-satellite position, see the globe view (requires WebGL).

§ Visibility from observer

Set your observer location to see the next 7 days of passes ≥ 10°. The values pass through the URL so the page stays shareable.

No JS? Fill the form by hand. The geolocation button needs JavaScript.